Location: B�rgermoos
(47.6500°N, 9.0667°E)
Time: 02:15:03
(UTC+00:00)

Courier 1B - Pass Details

Date: 01 August 2021
Orbit: 963 x 1209 km, 28.3° (Epoch: 19 September)

Event Time Altitude Azimuth Distance (km) Brightness Sun altitude
Rises 20:34:32 0° 240° (WSW) 4,092 10.9 -13.7°
Reaches altitude 10° 20:38:39 10° 221° (SW) 3,103 10.1 -14.1°
Maximum altitude 20:43:05 16° 185° (S) 2,606 9.3 -14.6°
Enters shadow 20:44:54 15° 169° (S) 2,674 9.3 -14.8°
